{"data":{"norad_id":64777,"epoch":"2026-05-24T18:40:41.168928Z","epoch_age_seconds":94507,"freshness":"FRESH","line1":"1 64777U 25147Y   26144.77825427  .00010151  00000+0  31116-3 0  9991","line2":"2 64777  53.1573 248.4463 0000957  67.8285 292.2819 15.34398482 50358","mean_motion":15.34398482,"eccentricity":9.57e-5,"inclination_deg":53.1573,"raan_deg":248.4463,"arg_perigee_deg":67.8285,"mean_anomaly_deg":292.2819,"bstar":0.00031116,"rev_number":5035,"period_min":93.847850926119,"perigee_km":462.05308318396,"apogee_km":463.3624208695,"semimajor_km":6840.8447520267,"source":"CELESTRAK","updated_at":"2026-05-25T13:38:20.559750Z"}}